Tracking 30970 objects as of 3-Jul-2025
HD Live streaming from Space Station
objects crossing your sky now

THOR ABLESTAR DEB

Track THOR ABLESTAR DEB now!
10-day predictions


NORAD ID: 656
Int'l Code: 1961-015HH
Perigee: 858.1 km
Apogee: 1,901.9 km
Inclination: 66.3 °
Period: 113.2 minutes
Semi major axis: 7750 km
RCS: 0.0195 m2 (small)
Launch date: June 29, 1961
Source: United States (US)
Launch site: AIR FORCE EASTERN TEST RANGE (AFETR)

Note: This is SATELLITE DEBRIS
Your satellite tracking list
Your tracking list is empty




NASA's NSSDC Master Catalog

Two Line Element Set (TLE):
1 00656U 61015HH  25183.73538776  .00001195  00000-0  24326-2 0  9990
2 00656  66.2876 197.8245 0673325 292.4138  60.6902 12.72236239922536
Source of the keplerian elements: AFSPC